This is the latest recevied weather packets stored in our database for station/object DL1MMS-10. If no packets are shown the sender has not sent any weather packets the latest 10 day(s).
| Time | Temp. | Humidity | Pressure | Rain* | Wind** | Luminosity | Snow |
|---|---|---|---|---|---|---|---|
| 1778057645 | 16.67° C | 63% | 1007.8 hPa | 0 mm | - | - | - |
| 1778057345 | 16.11° C | 64% | 1008.1 hPa | 0 mm | - | - | - |
| 1778057044 | 15.56° C | 66% | 1008.1 hPa | 0 mm | - | - | - |
| 1778056744 | 15.56° C | 67% | 1008 hPa | 0 mm | - | - | - |
| 1778056444 | 15° C | 68% | 1007.5 hPa | 0 mm | - | - | - |
| 1778056143 | 15° C | 68% | 1007.5 hPa | 0 mm | - | - | - |
| 1778055843 | 15° C | 69% | 1007.9 hPa | 0 mm | - | - | - |
| 1778055543 | 15° C | 70% | 1007.8 hPa | 0 mm | - | - | - |
| 1778055242 | 15° C | 72% | 1008 hPa | 0 mm | - | - | - |
| 1778054942 | 14.44° C | 73% | 1008 hPa | 0 mm | - | - | - |
| 1778054642 | 14.44° C | 74% | 1007.8 hPa | 0 mm | - | - | - |
| 1778054342 | 13.89° C | 74% | 1007.8 hPa | 0 mm | - | - | - |
| 1778054041 | 13.89° C | 75% | 1007.9 hPa | 0 mm | - | - | - |
| 1778053741 | 13.33° C | 76% | 1007.9 hPa | 0 mm | - | - | - |
| 1778053441 | 13.33° C | 77% | 1007.9 hPa | 0 mm | - | - | - |
| 1778053141 | 12.78° C | 77% | 1007.9 hPa | 0 mm | - | - | - |
| 1778052840 | 12.78° C | 77% | 1008 hPa | 0 mm | - | - | - |
| 1778052540 | 12.78° C | 77% | 1008.1 hPa | 0 mm | - | - | - |
| 1778052240 | 12.78° C | 78% | 1008.2 hPa | 0 mm | - | - | - |
| 1778051939 | 12.22° C | 78% | 1008.3 hPa | 0 mm | - | - | - |
| 1778051639 | 12.22° C | 78% | 1008.1 hPa | 0 mm | - | - | - |
| 1778051339 | 11.67° C | 78% | 1008.2 hPa | 0 mm | - | - | - |
| 1778051038 | 11.67° C | 78% | 1008.2 hPa | 0 mm | - | - | - |
| 1778050738 | 11.67° C | 79% | 1008.3 hPa | 0 mm | - | - | - |
| 1778050438 | 11.67° C | 80% | 1008.5 hPa | 0 mm | - | - | - |
* Rain latest hour (hover to see other rain measurements)
** Current wind speed in m/s (hover to see current wind gust speed)